Theta_e
312 312 312 312 312 313 313 314 315 316 317 318 318 318 317 317 317 316 315 314 315 317 318 318 317 316 316 315 315 315 315 314 314 314 314 314 316 316 317 319 319 319 318 318 317 316 316 315 314 314 315 317 318 318 317 317 316 319 329 329 322 323 324 321 320 315 316 320 312 308 310 312 313 310 309 309 309 309 308 309 310 310 310 310 309 309 309 309
312 312 312 312 312 312 312 313 313 314 315 316 317 317 317 317 317 317 316 315 315 316 317 318 318 316 316 316 315 314 314 314 314 314 314 315 316 316 318 320 320 319 319 319 318 318 317 315 315 314 316 317 317 318 317 317 315 319 327 323 321 328 321 315 315 312 312 315 310 309 310 310 313 311 309 311 309 307 308 308 308 308 309 309 309 309 309 309
311 311 311 311 311 311 311 311 312 312 313 314 315 316 316 317 317 317 316 315 315 315 316 317 318 317 317 316 315 315 315 314 314 314 314 315 316 317 318 320 319 319 319 319 320 319 319 318 317 315 315 317 317 317 316 317 315 315 319 322 325 323 314 310 312 312 312 312 309 309 309 309 311 310 309 310 308 305 307 309 307 308 310 310 309 308 308 308
311 311 311 311 311 311 311 311 311 311 311 312 313 313 314 315 316 316 316 316 315 315 315 315 316 318 317 316 316 316 315 316 317 315 314 315 317 317 317 320 319 318 318 318 320 320 320 319 317 314 315 316 315 317 315 315 316 314 317 323 320 312 313 314 312 312 312 311 310 309 309 309 309 310 309 308 309 308 307 310 311 311 313 311 309 308 308 308
311 311 311 311 311 311 311 310 310 310 310 310 311 311 312 313 314 315 315 316 315 314 315 314 315 317 318 317 317 316 316 320 319 315 315 315 316 317 317 319 319 318 318 318 319 319 320 320 317 315 315 315 315 316 314 312 314 314 314 315 311 309 314 314 311 312 312 311 310 308 310 311 310 308 308 308 311 312 310 312 313 313 313 312 311 309 308 307
311 311 311 311 310 311 310 310 310 310 310 310 310 310 311 312 313 314 314 315 315 314 314 315 314 316 318 318 317 316 316 320 319 315 315 315 316 317 317 318 318 318 317 318 318 319 320 320 318 315 315 315 314 315 314 311 312 315 313 310 310 310 313 313 312 312 312 311 311 309 311 311 309 309 309 308 310 313 312 312 312 312 312 311 311 310 309 308
311 311 311 311 311 310 310 310 310 310 310 310 310 310 310 310 311 312 313 313 314 313 313 315 315 314 317 318 317 316 316 318 318 317 316 315 316 317 317 317 318 318 317 317 318 318 320 320 318 315 314 315 314 313 313 311 310 316 315 311 311 311 311 313 312 312 312 312 311 311 311 309 309 311 309 307 311 313 312 312 311 311 311 310 309 309 309 309
311 311 311 311 311 311 310 310 310 310 310 310 310 310 310 310 310 310 311 312 312 312 312 313 315 314 316 317 318 317 317 317 318 318 316 315 316 317 317 317 317 318 317 317 318 318 319 319 318 315 314 313 313 313 312 311 311 314 315 311 311 311 312 313 311 312 312 311 311 310 310 309 310 309 306 308 312 312 311 312 311 311 311 310 309 309 308 308
311 311 311 311 311 311 311 311 310 310 310 310 310 310 310 310 310 310 310 311 311 311 311 312 315 314 315 316 317 318 317 318 318 318 316 314 315 316 317 316 316 317 317 317 317 318 319 318 317 315 315 313 313 313 311 313 313 312 312 311 311 312 312 312 312 312 311 311 311 310 310 309 309 308 308 310 312 311 311 311 310 310 310 310 309 308 308 308
311 311 311 311 311 311 311 311 311 310 310 310 310 310 310 310 310 310 310 310 310 311 310 311 314 315 314 315 317 318 316 317 318 318 316 314 314 315 316 316 316 316 316 317 317 317 318 318 317 315 315 313 312 311 310 312 313 311 310 310 310 311 311 311 311 311 311 310 309 310 311 309 307 308 310 311 311 311 310 310 309 309 309 309 309 308 308 307
311 311 311 311 311 311 311 311 311 311 311 310 310 310 310 310 310 310 310 310 310 310 310 310 313 315 314 315 316 317 315 316 317 318 317 315 314 314 315 315 315 316 316 316 317 317 316 318 318 315 315 315 313 311 309 310 311 310 309 310 309 308 309 309 309 309 309 310 309 309 309 307 306 307 311 311 310 310 310 310 309 309 309 309 309 308 307 307
311 311 311 311 311 311 311 311 311 311 312 311 311 311 310 310 310 310 310 310 310 310 310 310 312 314 314 315 316 316 315 316 316 317 317 316 314 313 314 315 315 315 316 316 316 317 316 317 317 316 315 314 312 311 311 310 310 309 309 312 313 312 313 309 308 307 308 310 309 308 310 310 308 309 311 310 309 310 308 309 309 308 309 308 308 308 307 307
311 311 311 311 311 311 311 312 312 312 312 312 312 311 311 311 311 310 310 311 310 310 310 310 312 314 314 315 315 315 315 316 316 316 317 318 315 314 314 314 315 315 315 315 316 316 315 316 316 316 315 313 312 311 311 308 307 310 308 311 316 319 319 309 306 307 307 309 308 308 315 317 312 309 311 310 309 309 308 308 308 308 308 307 307 307 307 306
311 311 311 311 311 311 312 312 312 313 313 313 313 313 312 312 312 311 311 311 311 311 310 311 312 313 314 315 314 314 315 315 316 317 317 317 316 314 314 314 315 315 315 315 315 316 315 315 316 316 313 312 311 309 312 311 311 313 309 314 319 317 323 314 305 307 309 310 307 309 315 317 315 312 311 311 309 308 307 308 308 308 307 307 307 306 306 307
311 311 311 311 312 311 312 312 313 313 313 313 313 313 312 312 313 312 312 312 311 311 311 311 312 312 314 314 314 315 315 315 316 317 316 316 315 314 313 314 314 314 315 314 314 315 314 314 315 315 313 312 312 313 320 320 319 318 312 321 324 316 324 320 305 305 311 310 306 309 316 315 314 312 311 311 308 307 306 307 307 307 307 307 306 306 306 306
311 312 311 311 312 312 312 312 313 313 313 313 313 313 312 312 312 312 312 312 311 311 310 311 311 313 315 315 314 314 315 316 316 316 316 316 315 314 313 313 314 314 314 314 314 314 314 315 314 313 311 310 315 323 326 324 326 324 315 320 327 318 319 319 308 303 306 309 307 309 314 316 314 310 309 309 308 306 305 305 307 307 307 307 306 306 305 305
311 311 311 312 312 311 311 312 312 313 313 313 312 312 312 311 312 311 312 312 311 311 311 312 312 314 315 315 315 315 316 317 316 316 316 315 314 313 313 313 314 314 314 314 314 314 314 315 313 312 312 309 315 324 321 320 327 326 317 318 324 319 315 317 314 305 302 308 311 310 310 312 313 310 308 308 307 306 303 304 306 307 307 307 306 305 304 305
311 311 311 311 311 311 311 311 311 312 312 312 311 312 311 311 311 311 311 311 311 313 314 314 314 315 316 314 315 316 316 316 316 316 315 315 314 313 313 313 313 314 314 314 313 314 315 313 313 317 318 311 315 322 318 319 324 323 321 321 320 318 314 315 316 308 304 308 311 311 310 309 310 310 308 308 307 305 304 305 305 306 307 306 305 304 304 304
312 312 312 312 311 311 311 311 311 311 311 311 311 310 311 311 310 310 311 312 313 314 316 315 315 317 316 314 314 314 314 314 315 315 315 315 314 313 313 313 314 314 313 314 315 314 312 312 314 318 320 316 316 319 318 323 326 323 323 322 320 318 314 313 312 306 304 308 309 308 309 309 309 309 308 308 307 305 304 304 304 304 305 304 303 302 303 304
309 310 311 312 312 311 311 310 310 310 310 311 310 310 310 309 311 312 312 312 312 312 313 313 314 315 315 313 313 313 313 313 314 315 315 315 314 314 313 313 314 313 313 318 321 313 311 317 319 318 320 320 320 318 317 320 320 317 317 317 315 314 312 312 311 306 302 306 311 309 308 307 307 307 307 307 306 303 302 301 301 303 304 303 301 302 303 304
306 307 307 308 310 310 311 311 310 310 309 310 309 309 309 308 312 314 311 311 311 311 311 311 312 313 313 312 312 312 313 313 314 315 314 314 314 314 314 313 314 316 314 313 315 311 311 318 319 319 318 317 319 315 312 313 311 311 313 313 312 312 311 310 308 307 304 305 310 311 309 308 306 307 306 306 306 305 303 301 301 303 304 302 301 302 303 304
306 306 306 306 307 307 308 309 310 310 309 309 308 308 309 308 310 311 310 311 311 310 311 310 310 311 311 311 311 311 312 313 313 314 314 313 314 314 313 314 316 319 314 310 314 315 315 319 319 316 309 308 312 309 309 312 310 311 312 312 313 312 312 312 309 308 306 306 310 311 308 308 308 308 308 308 307 307 307 305 305 306 304 303 302 303 303 302
307 307 307 307 307 306 306 306 308 309 309 309 308 308 309 309 310 310 311 312 312 311 310 311 311 310 311 311 311 311 311 313 313 312 313 312 314 314 312 313 317 320 316 315 319 317 319 322 315 306 304 310 312 306 307 310 310 312 312 313 315 312 313 315 312 309 308 307 308 309 307 307 308 308 308 308 306 307 308 307 307 307 306 305 305 305 304 303
307 307 307 308 308 307 306 305 306 307 308 308 308 308 309 309 310 311 312 312 312 312 310 311 311 310 312 311 311 312 311 312 312 312 313 312 313 313 311 313 317 318 315 317 319 317 321 317 304 300 306 315 315 308 308 310 312 315 313 313 315 314 314 315 313 310 311 309 305 308 311 311 312 312 312 308 304 305 305 305 307 306 306 306 305 305 305 305
307 306 307 307 307 306 306 305 305 306 307 308 308 308 309 310 311 312 312 311 312 312 311 311 312 311 312 312 312 312 311 312 312 312 312 312 313 312 311 311 313 316 316 317 318 318 319 309 303 307 310 313 316 313 312 312 314 319 317 314 313 314 313 312 311 311 316 316 307 308 315 314 313 315 315 313 311 311 307 304 306 306 305 305 305 306 306 305
308 307 306 305 306 306 306 306 306 307 307 308 309 309 310 311 313 314 312 311 312 313 311 311 313 314 313 313 313 311 314 315 312 312 313 312 313 312 312 311 310 314 317 315 315 318 316 305 305 314 313 311 314 315 314 312 313 317 316 313 311 311 311 310 310 312 318 319 308 309 316 315 312 314 319 320 318 317 312 309 308 307 306 306 306 307 307 307
311 309 306 305 305 306 306 306 308 308 309 310 311 311 311 312 313 312 310 309 311 313 314 313 313 315 314 313 313 313 318 317 311 311 312 312 312 310 314 314 310 311 309 310 315 317 312 307 308 312 313 313 313 314 315 311 315 318 312 311 313 311 312 313 311 311 314 312 308 310 312 313 313 313 318 318 316 316 315 313 310 306 306 307 307 308 308 308
312 311 309 307 305 306 306 306 307 308 310 312 311 311 311 311 311 310 308 308 311 315 316 314 313 313 314 313 312 312 314 313 312 312 310 311 311 310 313 314 314 314 307 310 320 315 309 312 313 312 313 314 314 317 313 310 316 317 307 308 312 311 313 313 310 310 310 308 311 312 308 310 314 312 311 310 311 315 315 316 314 308 306 309 310 311 310 310
312 312 311 308 306 306 305 305 306 307 311 313 311 311 311 310 310 309 309 307 311 317 315 314 314 313 312 312 312 310 310 310 311 311 309 310 310 309 311 310 310 313 306 309 320 315 308 309 309 312 316 316 315 311 305 310 314 308 303 307 309 309 310 310 310 311 310 310 314 313 308 311 315 313 311 308 310 316 316 316 314 307 306 310 312 312 312 310
313 313 312 309 306 306 306 306 305 307 311 312 311 311 309 310 310 309 308 308 312 315 312 312 314 313 312 314 314 310 310 310 308 308 308 308 309 308 310 309 307 313 313 311 316 314 306 303 304 309 312 311 310 303 299 307 307 302 305 311 312 311 308 308 311 311 312 315 315 313 309 310 314 314 313 311 313 318 317 315 314 308 308 311 313 312 312 310
314 313 313 310 307 306 307 307 307 308 310 311 311 310 309 312 313 311 308 308 309 312 313 314 313 313 315 317 319 313 310 310 307 307 309 308 309 308 309 310 310 316 320 315 316 313 306 306 308 307 305 304 308 307 301 300 300 304 313 315 315 316 312 313 315 312 315 318 314 311 306 307 312 314 312 312 313 315 315 316 320 315 310 312 313 312 311 310
315 313 312 311 308 306 306 307 309 309 310 311 310 309 310 313 312 310 307 306 309 313 317 318 314 314 316 316 319 315 312 313 307 307 311 310 311 310 311 315 315 317 321 318 318 317 313 312 309 306 304 304 313 314 306 303 303 307 315 318 318 318 317 319 319 315 317 318 311 306 306 307 310 311 310 311 312 312 309 310 316 314 311 312 312 310 310 309
314 313 313 311 309 308 307 307 309 310 310 311 309 309 312 312 309 309 308 307 310 312 315 319 315 315 316 316 319 315 313 316 310 306 310 310 310 311 311 315 316 316 318 317 315 318 319 313 307 308 307 306 312 315 313 311 307 307 313 318 319 318 319 322 319 314 315 316 309 303 307 310 309 310 311 310 311 311 305 304 309 311 311 312 310 309 309 308
313 313 313 312 310 309 308 307 309 310 310 310 308 309 312 311 309 310 311 309 310 312 315 317 314 314 315 317 320 316 314 317 313 308 310 310 310 313 313 313 312 315 318 315 314 317 320 316 312 313 312 308 309 312 316 316 308 307 313 314 316 321 323 322 321 317 316 319 312 304 308 313 312 312 313 308 307 307 305 305 308 309 310 309 308 308 309 308
313 313 313 312 310 309 308 307 309 310 309 308 308 310 311 310 311 312 312 310 311 315 315 313 314 315 316 317 318 316 314 316 314 310 312 311 313 316 316 312 310 314 318 316 316 316 314 318 315 308 306 307 308 308 310 313 310 308 311 312 314 318 317 315 317 315 314 318 314 308 311 313 310 311 311 308 307 305 305 304 304 306 307 306 305 308 309 308
314 314 312 311 310 309 308 308 310 310 308 307 309 311 309 309 315 315 311 310 312 317 315 313 316 316 317 318 318 315 312 313 313 313 313 312 313 314 315 314 309 310 314 315 318 316 314 318 312 303 303 304 304 304 304 309 311 308 309 313 312 311 313 316 314 309 309 314 315 313 313 311 309 310 310 310 309 307 305 302 301 302 303 302 303 307 309 309
315 314 312 311 311 309 308 308 310 310 307 306 310 312 309 309 312 313 310 309 311 316 315 313 314 316 318 319 318 316 313 312 312 314 315 313 313 314 314 315 310 308 312 314 318 320 318 318 311 306 310 303 297 300 302 302 306 311 313 312 308 308 311 316 317 314 313 314 315 315 313 310 310 310 308 307 307 307 307 305 302 301 299 299 302 307 309 309
315 314 312 312 312 310 307 307 310 311 307 305 309 312 312 310 307 306 308 309 310 314 315 311 311 314 319 318 317 316 314 314 314 314 316 315 314 314 313 314 311 307 310 311 316 320 316 316 313 306 308 303 296 302 307 302 300 307 310 306 307 313 314 313 314 316 315 314 317 318 312 310 311 310 309 309 308 308 308 306 304 302 299 296 301 308 310 309
315 313 312 313 312 310 308 308 310 311 308 305 308 311 312 311 306 304 308 310 311 313 312 311 309 310 315 317 318 317 312 314 315 313 315 316 314 313 312 314 314 308 307 309 314 317 314 316 316 305 302 304 301 305 312 308 300 301 303 302 306 312 314 314 312 314 316 314 314 315 311 311 312 312 313 311 310 310 310 309 307 305 300 297 303 309 310 310
315 313 313 313 312 310 309 309 310 310 309 307 308 308 309 310 308 307 307 308 310 311 311 313 312 309 313 315 316 318 314 313 313 312 314 315 315 314 311 313 316 311 306 307 311 314 313 315 316 308 301 305 307 308 310 310 305 303 305 306 306 307 310 312 310 311 315 315 314 314 311 311 312 314 316 313 311 310 310 311 311 306 301 302 307 311 311 310
314 312 313 313 312 311 310 310 310 310 311 310 309 308 308 308 309 309 308 306 308 309 309 315 315 310 311 313 313 315 315 314 313 312 314 315 314 314 311 310 313 311 308 309 311 313 315 315 315 313 308 308 310 307 305 308 308 305 306 307 306 306 310 312 310 309 311 313 315 315 312 310 311 314 315 314 315 313 309 310 311 305 302 306 310 310 310 310
314 312 313 312 312 312 311 311 311 310 312 312 311 310 309 309 309 309 308 307 307 307 307 312 314 311 310 312 314 315 315 317 315 312 313 315 312 312 312 309 308 309 310 312 311 311 314 317 314 314 314 311 307 302 299 304 307 306 307 308 307 306 309 312 311 311 310 309 310 311 311 311 311 316 318 318 318 313 305 305 307 304 304 309 311 309 310 310
313 312 312 311 312 312 310 310 311 310 311 312 311 311 310 310 310 310 309 308 307 308 308 309 310 310 310 311 313 314 314 316 316 313 314 316 314 310 309 308 307 309 312 313 312 310 311 315 313 313 315 312 304 300 299 302 305 307 308 307 306 306 307 311 310 310 312 311 309 311 311 310 311 317 321 319 313 306 301 301 303 302 304 309 310 309 309 309
313 312 311 310 311 311 310 310 311 311 311 311 311 312 311 311 311 310 310 309 308 310 310 308 308 308 310 311 311 312 311 311 313 313 313 316 315 309 307 307 308 311 312 312 313 311 311 315 315 313 316 315 310 306 304 304 305 307 309 307 306 306 306 309 308 307 310 310 309 311 310 309 310 312 313 311 308 307 303 299 300 301 303 307 308 308 308 308
314 312 310 309 310 309 308 310 311 310 310 311 311 312 312 312 312 311 311 309 308 309 309 309 308 307 309 311 310 310 310 310 311 311 312 315 312 305 304 307 309 310 310 310 310 311 314 316 314 313 314 314 313 311 311 310 306 305 308 307 306 306 306 307 308 308 309 308 308 309 309 309 309 310 309 307 307 309 304 297 297 300 302 304 306 306 306 306
314 312 309 308 309 309 308 309 309 310 310 311 311 311 311 312 311 310 311 310 309 308 308 309 308 307 309 310 309 309 310 309 310 310 312 316 314 305 301 304 307 307 308 308 307 310 316 316 312 313 313 312 311 310 312 313 309 307 309 308 306 306 305 307 309 309 309 309 308 308 308 309 309 309 309 307 307 308 306 302 300 299 301 303 304 305 305 304
314 313 310 308 308 308 308 308 309 309 309 310 311 311 311 311 310 309 310 311 311 309 308 309 308 309 310 309 308 309 309 308 309 309 310 312 312 307 302 301 304 305 305 306 307 310 315 314 311 313 313 311 311 310 311 312 311 310 309 307 306 305 305 307 308 308 309 310 310 308 308 309 309 308 308 308 308 308 308 307 305 303 304 305 305 305 304 303
315 314 311 310 310 310 308 308 308 308 309 309 310 311 311 310 310 310 310 310 310 310 310 311 310 310 310 309 309 309 308 309 309 308 309 309 308 308 306 304 303 303 304 305 305 308 312 312 311 312 312 311 311 310 310 310 309 310 309 309 308 306 305 306 307 307 308 309 309 309 309 309 308 308 308 308 308 307 307 307 306 306 306 306 305 305 303 303
314 313 312 311 311 310 309 308 308 308 309 309 309 310 310 310 310 309 310 310 309 309 310 311 311 310 310 310 309 309 309 309 309 309 309 308 309 309 309 308 304 301 303 307 306 306 309 311 311 311 310 310 310 310 310 308 307 308 308 308 308 306 305 305 306 306 307 307 308 308 308 308 308 308 308 307 307 307 306 306 306 306 306 306 306 304 303 302
314 313 312 312 311 311 310 309 309 309 309 309 310 310 309 310 311 310 309 310 311 310 309 310 311 310 310 310 309 309 309 309 310 310 310 309 310 310 309 311 310 303 302 306 308 306 307 310 311 310 310 311 310 309 309 308 308 307 307 307 307 306 305 304 305 305 306 306 306 306 306 307 307 307 307 306 306 306 306 306 306 306 306 306 306 305 304 303
315 314 313 312 311 311 311 310 309 309 309 309 310 310 310 310 310 310 310 309 310 311 310 310 310 310 309 309 309 309 309 309 309 309 309 309 310 310 310 311 313 310 306 306 307 307 307 309 310 310 310 311 310 310 310 309 308 307 307 308 307 307 307 306 305 306 306 306 306 306 307 307 306 307 307 307 306 307 307 306 305 306 306 305 305 305 305 304
313 314 314 313 313 312 311 311 310 309 309 310 309 309 310 311 310 311 311 309 308 309 309 309 310 310 309 309 309 309 309 309 309 308 308 308 308 308 309 309 309 312 310 307 307 307 308 308 309 309 309 310 311 311 311 311 310 309 309 309 308 308 308 308 307 307 307 306 307 307 307 307 307 308 307 307 307 307 307 306 305 305 305 305 305 306 306 305
Wind_Speed
11 11 11 11 11 11 11 11 11 11 11 11 12 13 13 13 14 15 16 13 10 11 10 7 2 0 2 3 4 5 4 4 4 4 4 3 4 5 6 7 7 8 8 8 8 7 5 3 3 3 1 4 3 3 3 4 2 1 2 3 1 2 3 5 7 7 4 1 4 10 15 9 3 9 10 5 7 8 11 17 18 20 25 23 16 11 10 21
10 10 11 11 11 11 11 11 11 12 12 11 11 12 13 13 13 14 15 14 11 10 10 9 4 2 2 2 3 4 3 2 3 4 4 3 3 4 5 5 6 6 7 7 8 7 6 3 3 2 3 6 3 4 4 2 2 2 3 2 2 5 4 6 8 8 4 1 4 11 13 10 5 11 13 5 6 9 8 13 18 20 25 26 22 16 13 22
10 10 10 10 11 11 11 11 12 12 13 13 13 12 13 13 13 13 13 13 12 9 9 10 7 3 3 4 4 3 3 3 4 5 5 4 2 3 4 4 4 5 6 6 7 7 7 5 3 1 5 5 4 5 4 2 1 1 3 2 4 5 3 6 8 9 8 3 3 10 10 9 7 11 13 7 4 6 9 14 17 22 27 27 25 20 18 23
9 9 10 10 10 10 10 11 11 12 12 13 14 13 13 14 14 14 13 13 12 10 8 9 9 5 3 5 6 5 4 5 6 7 7 5 3 3 3 3 2 3 5 5 6 7 8 7 4 4 6 5 4 5 2 3 1 1 3 3 4 3 1 5 8 8 9 5 3 9 8 7 9 11 13 9 3 4 15 24 24 25 28 27 27 23 22 26
10 9 9 9 9 10 10 10 10 11 11 12 13 14 14 14 14 14 13 13 12 11 9 9 9 6 5 4 6 7 4 4 4 9 8 6 4 3 3 3 1 2 4 5 5 6 7 8 4 4 5 3 3 3 1 3 3 2 1 4 3 4 1 3 5 6 8 6 4 8 6 7 9 12 17 16 8 10 18 25 25 25 27 26 26 25 25 28
11 11 10 10 10 10 10 10 10 10 11 11 12 13 13 13 14 14 14 13 13 13 11 8 8 7 5 4 5 6 5 2 3 8 8 7 5 4 4 3 2 1 4 4 5 5 7 8 4 3 4 3 2 3 1 0 3 1 2 4 4 6 4 3 3 5 7 7 6 7 6 8 9 9 17 23 22 23 21 19 17 18 23 25 24 26 28 30
12 12 12 11 11 11 11 11 11 11 11 11 12 13 13 13 13 13 13 13 13 13 13 10 8 8 5 5 4 6 10 9 7 8 9 9 7 5 4 4 3 3 3 4 5 5 6 9 6 4 4 3 2 3 2 1 3 2 1 3 4 7 8 6 6 7 7 8 8 6 5 8 10 7 9 22 32 30 26 21 16 14 17 22 24 27 29 30
13 13 13 13 12 12 12 12 12 12 12 11 12 12 14 14 13 14 13 13 13 13 13 11 9 8 6 5 5 7 11 12 9 9 11 11 8 7 5 5 5 4 4 4 5 4 6 9 7 4 2 2 3 3 2 1 2 2 2 3 3 6 9 8 9 10 9 9 10 7 8 10 11 8 9 26 35 27 27 28 24 19 16 20 25 28 30 31
13 13 14 14 13 13 13 13 13 13 13 12 12 12 14 15 14 14 14 14 14 13 13 12 9 9 7 5 5 6 8 9 8 9 10 12 10 8 7 6 6 6 5 5 5 4 5 7 6 3 2 4 4 2 1 1 2 2 3 4 4 5 7 8 10 11 10 10 9 7 10 12 10 7 14 29 31 24 26 28 27 25 21 21 25 29 31 32
14 14 14 14 14 14 14 14 14 14 14 13 13 12 13 15 15 15 15 15 14 14 14 12 9 9 8 6 4 4 5 5 6 8 10 12 12 10 8 7 7 7 6 6 5 5 3 6 7 3 3 5 4 2 1 1 1 1 2 4 6 8 8 8 10 10 10 10 10 9 8 9 6 1 10 18 13 13 19 22 25 25 25 25 25 29 32 33
15 15 16 15 15 15 15 15 15 15 15 15 14 13 14 15 16 16 16 15 15 15 14 13 10 9 9 7 6 6 7 6 5 7 10 12 13 12 10 8 8 8 7 7 5 5 4 4 7 3 2 2 2 1 2 1 1 2 3 5 6 7 8 9 9 9 8 6 9 10 5 5 2 3 16 21 11 11 14 17 22 23 25 25 26 30 32 34
17 17 17 17 16 16 16 16 16 15 15 16 16 15 15 16 17 17 17 17 17 17 16 13 10 9 9 10 12 10 10 10 9 9 9 12 14 13 12 10 10 9 8 8 6 5 4 4 6 4 1 2 2 2 2 1 1 1 0 3 6 7 5 7 5 5 6 3 5 5 4 5 6 12 26 23 16 15 14 17 21 23 25 25 27 30 33 35
19 18 18 18 18 17 17 17 17 16 16 16 17 16 16 17 18 18 19 18 18 19 17 13 10 10 10 11 13 12 11 11 11 11 10 11 13 14 13 12 11 9 9 8 7 6 4 5 4 4 1 2 2 2 1 1 1 1 2 0 4 7 5 3 0 1 4 3 5 5 4 7 9 21 28 20 17 16 16 20 22 24 26 26 29 31 34 35
20 19 19 19 19 18 19 18 18 18 17 17 17 17 17 18 18 19 20 20 20 20 17 12 9 10 10 11 13 13 13 13 12 12 11 11 12 13 13 13 11 10 9 8 8 6 4 5 4 2 1 1 2 3 0 3 2 0 0 1 2 2 4 5 1 4 3 3 8 6 4 10 8 15 19 18 20 18 19 22 23 25 27 28 31 33 36 37
21 21 20 20 20 19 20 20 20 20 19 18 18 18 18 19 19 19 20 20 20 19 16 13 11 10 11 13 13 12 12 12 13 13 12 12 12 13 13 12 11 10 9 8 8 7 4 4 3 0 1 1 2 3 2 4 3 2 1 3 2 1 4 8 4 7 4 2 8 6 3 10 11 11 14 15 18 19 22 24 23 26 27 30 33 35 37 38
22 22 22 21 21 20 21 21 21 21 21 20 20 19 19 20 20 20 20 19 18 18 16 13 12 9 8 10 10 9 10 11 11 12 12 12 12 12 12 11 10 9 9 8 7 6 4 3 1 1 1 2 3 3 3 4 4 3 1 3 3 2 3 6 4 6 5 1 5 5 3 7 9 7 9 12 15 19 22 24 24 27 28 31 34 36 39 39
25 24 24 23 23 22 22 22 22 22 22 21 21 21 20 21 22 21 18 16 16 17 15 13 11 8 9 10 10 9 10 10 10 11 12 12 13 12 12 11 9 8 8 7 6 4 3 1 2 1 1 2 2 4 3 3 4 3 1 2 4 3 3 4 4 3 2 2 4 5 5 12 13 11 11 12 14 18 22 26 26 28 30 33 36 38 40 41
28 27 26 25 25 24 24 24 24 24 23 22 23 23 22 22 21 19 17 15 14 12 11 9 5 3 7 9 8 7 9 10 11 12 12 13 13 13 13 10 8 8 5 4 5 4 3 1 3 0 3 3 2 5 2 4 4 4 3 2 4 3 3 5 5 2 2 2 5 4 7 15 18 19 22 19 17 21 26 29 28 30 33 35 36 38 39 42
31 31 30 28 27 26 26 26 26 25 25 23 23 24 23 21 18 16 13 10 7 4 5 6 6 3 5 7 9 12 13 13 12 12 13 13 13 13 12 10 9 7 2 1 3 2 2 1 2 1 2 2 4 6 8 8 7 6 5 4 5 5 5 6 5 3 1 2 7 8 10 15 17 19 22 20 17 24 30 29 28 31 34 35 35 37 39 42
31 32 33 32 30 29 28 27 27 26 26 24 23 22 19 13 9 9 9 9 10 11 13 14 13 13 14 15 18 19 17 17 16 14 13 13 13 11 10 9 7 5 2 3 2 1 3 1 4 7 7 7 9 9 6 4 6 5 4 4 5 5 7 6 3 3 1 1 8 10 9 13 17 18 21 20 14 20 26 23 26 32 35 35 33 36 39 42
27 29 31 31 31 31 30 28 28 27 25 24 22 19 13 7 5 6 9 13 15 15 18 20 20 22 24 23 24 23 18 16 16 16 15 13 12 8 7 6 4 2 3 3 3 2 3 4 9 9 9 7 6 6 5 5 5 3 4 4 5 4 7 6 2 4 2 1 6 7 8 13 17 16 21 20 10 18 25 20 26 35 36 33 32 36 39 39
24 25 26 27 27 28 28 28 28 27 25 23 20 15 12 10 10 11 11 12 17 18 18 21 24 26 28 27 28 26 19 13 14 18 16 14 14 10 6 5 4 3 2 3 4 1 1 7 12 8 8 5 4 5 6 5 5 3 3 2 4 4 5 6 3 4 2 2 5 6 8 15 18 16 22 23 16 23 30 24 30 38 34 32 33 36 37 37
22 23 24 24 23 23 24 25 27 26 24 21 18 14 11 11 10 11 9 7 14 20 19 20 22 25 26 27 28 25 19 14 14 17 18 17 15 12 9 7 5 3 1 4 6 3 3 8 9 6 10 8 5 4 6 5 3 3 3 3 5 3 1 4 4 4 1 2 4 7 10 14 15 14 18 20 16 22 29 28 33 38 34 32 34 35 35 35
22 23 24 24 22 21 20 22 23 23 22 20 17 14 11 10 8 8 8 5 7 13 15 17 18 22 24 22 21 19 18 17 13 12 16 19 15 10 9 8 5 3 4 7 9 7 8 7 4 8 7 7 6 3 6 5 2 3 5 6 6 4 5 6 3 4 3 2 3 6 11 10 7 9 10 7 5 12 19 21 29 35 33 33 32 32 34 35
21 22 24 24 21 18 18 18 18 19 20 17 15 14 10 8 6 6 6 3 4 7 9 12 13 17 19 16 15 14 11 14 16 12 12 18 18 9 5 8 6 5 7 7 8 7 10 7 9 7 3 5 6 4 5 7 3 4 6 10 9 7 7 5 2 4 4 3 3 5 8 9 1 4 7 4 3 7 7 9 20 27 24 26 29 31 32 33
20 21 22 23 20 17 15 13 13 14 13 12 11 10 7 6 4 6 4 2 3 5 4 6 7 8 10 9 10 9 3 7 14 16 13 15 19 12 4 5 4 4 6 7 5 4 4 2 6 6 5 5 4 5 6 7 5 3 5 7 7 5 4 3 0 2 1 3 3 4 1 9 3 4 6 4 3 8 7 7 16 22 20 21 27 29 29 30
19 19 20 22 19 15 12 9 10 9 6 7 8 7 5 4 1 4 4 3 5 5 5 6 6 6 7 7 12 11 2 3 5 11 16 15 17 14 6 4 2 2 5 5 2 3 2 4 4 4 6 5 5 6 6 9 7 4 3 5 6 6 6 5 4 2 3 1 4 1 3 8 9 5 4 3 3 9 12 12 13 19 23 25 27 26 24 25
19 19 19 20 17 13 10 9 10 8 7 6 7 9 6 5 4 3 3 4 5 4 5 5 6 7 7 11 17 10 1 2 3 6 14 15 15 11 6 7 6 4 4 5 4 4 3 5 5 6 5 4 6 5 7 11 5 4 4 6 6 6 5 5 4 3 2 3 4 4 4 5 10 5 1 2 3 8 12 15 13 14 21 22 22 21 19 19
20 19 19 20 17 12 10 10 10 9 10 9 8 9 8 7 4 4 2 5 3 3 4 5 7 6 7 10 13 9 1 1 1 5 10 12 13 7 2 6 7 4 2 3 5 4 2 3 6 8 6 6 5 1 4 8 3 4 6 6 5 4 4 3 3 3 1 1 6 7 7 5 9 4 3 2 3 8 11 12 10 12 18 18 16 15 14 15
20 20 19 19 16 12 10 9 10 10 11 12 10 9 10 8 4 2 4 6 3 1 4 6 6 6 8 7 6 7 4 2 2 7 7 6 10 5 2 4 4 4 0 3 4 4 1 2 1 4 5 5 6 3 2 2 4 8 7 5 5 4 4 3 1 3 1 4 8 9 13 10 8 3 5 4 5 8 9 8 8 10 16 18 15 12 11 12
20 20 20 19 15 11 10 7 10 12 13 14 12 12 11 5 4 4 8 4 1 1 4 3 3 6 9 6 3 4 3 2 4 9 5 3 5 4 3 3 2 3 2 5 4 4 1 1 2 3 6 8 8 5 4 4 5 6 4 3 3 4 3 4 4 3 1 6 4 4 8 10 10 6 4 5 6 7 9 9 8 8 13 17 13 10 11 12
20 20 20 19 16 12 9 8 10 14 15 14 14 15 9 2 2 5 4 0 1 4 4 3 3 4 6 3 2 4 3 2 5 7 5 4 4 5 5 5 5 2 3 5 4 4 2 4 2 2 6 8 6 4 3 3 2 4 3 4 2 4 3 4 3 1 3 7 3 2 4 5 13 11 7 8 9 10 10 11 11 9 13 17 13 12 13 14
20 19 19 18 17 12 8 8 11 15 16 16 16 11 7 2 7 5 4 3 3 3 3 3 1 2 5 3 2 4 2 3 5 4 3 4 4 5 6 5 6 2 3 5 1 2 3 4 2 4 4 9 10 6 3 2 3 6 5 5 3 1 0 3 4 2 5 7 3 3 3 4 9 8 11 16 17 17 16 18 19 14 16 18 16 16 17 18
21 20 20 19 16 13 9 8 12 16 17 18 14 6 4 6 6 5 7 8 2 1 3 3 3 3 3 3 4 4 3 4 5 5 3 3 3 5 6 7 6 2 2 3 1 3 4 7 5 7 3 11 14 8 6 6 5 5 4 5 5 5 4 5 4 4 7 6 4 1 2 4 4 4 8 14 17 19 20 23 23 20 23 22 20 21 22 23
22 21 21 20 19 17 11 9 14 16 18 19 10 3 6 10 3 3 7 6 1 0 1 2 5 4 3 3 3 4 6 5 3 6 4 5 5 5 5 8 10 6 5 3 3 3 4 9 6 2 1 10 10 5 6 8 4 3 3 4 3 5 5 3 3 4 1 4 5 3 4 6 4 3 4 5 8 13 17 19 20 24 28 23 22 25 26 26
23 23 23 24 23 18 11 12 17 17 18 16 6 5 11 9 3 5 5 6 5 5 5 1 3 4 5 3 3 5 4 3 2 4 4 4 5 6 4 5 10 12 9 7 3 3 3 6 3 2 1 4 4 2 3 3 3 3 2 4 4 4 6 3 3 1 4 3 7 2 5 10 6 4 5 6 5 8 11 11 14 23 24 19 21 27 29 28
26 26 27 30 26 16 11 16 20 18 16 11 6 9 8 5 6 7 4 5 5 7 8 4 4 6 6 3 4 6 3 1 2 4 4 3 4 7 6 4 8 16 18 11 4 4 4 4 4 3 2 2 1 2 3 2 3 6 4 5 3 2 4 3 2 3 2 5 6 5 11 16 12 6 2 4 6 9 11 9 11 17 16 16 25 30 30 29
29 28 31 34 29 16 14 18 21 20 13 7 10 14 5 3 5 4 5 6 3 5 7 7 6 6 7 5 4 5 6 4 4 4 4 4 5 6 8 5 7 17 23 16 4 3 4 3 5 2 1 0 2 2 2 3 2 4 3 2 4 3 2 2 2 2 4 4 4 11 17 17 14 7 4 7 11 13 13 11 11 12 12 18 27 30 30 29
28 24 28 35 30 20 18 19 23 20 10 6 12 13 3 2 4 3 8 8 3 4 6 7 6 3 4 6 3 4 8 7 7 5 4 5 5 4 9 7 8 13 21 19 8 2 4 4 4 1 1 0 2 1 5 3 1 2 0 0 2 2 4 3 3 3 3 3 5 12 16 15 10 6 9 13 13 12 11 10 10 11 14 22 28 29 29 28
29 18 18 26 22 21 23 24 24 18 8 7 11 9 1 1 5 10 17 13 4 4 5 4 6 4 4 6 4 4 6 6 7 6 4 5 5 4 7 9 5 6 11 13 7 0 3 3 4 1 3 1 3 6 8 9 6 4 3 3 1 1 2 1 1 2 4 4 4 6 12 16 7 8 10 12 10 11 12 11 10 11 18 26 28 28 27 27
29 13 11 15 15 25 32 25 17 11 5 7 9 7 4 5 6 10 17 17 9 5 5 4 7 7 6 5 4 4 5 4 6 6 5 6 6 5 10 15 10 8 6 3 4 3 3 3 5 3 1 5 7 5 3 5 8 9 8 8 8 6 4 1 5 3 3 4 5 4 10 17 6 7 6 7 8 8 11 11 10 12 22 28 27 27 27 27
25 10 11 14 19 35 37 19 11 10 6 9 9 6 7 8 6 6 11 14 9 5 4 4 6 7 5 5 4 5 6 5 7 8 5 6 9 8 11 17 17 16 11 4 3 4 4 2 4 6 6 7 6 3 2 2 5 6 4 6 7 6 7 6 8 5 2 2 3 3 5 16 7 7 5 6 8 9 13 14 11 14 24 26 23 25 27 27
25 16 13 15 26 43 34 8 7 9 6 11 11 9 9 6 2 4 8 10 7 5 5 5 5 6 6 4 4 5 7 6 7 8 4 5 10 11 11 17 19 14 8 3 1 3 3 2 4 6 6 3 3 3 3 3 3 3 4 4 6 8 10 8 6 3 2 5 4 4 5 18 10 4 4 5 6 9 13 16 14 15 20 23 23 25 26 26
29 22 16 20 35 44 28 6 8 11 10 11 12 13 12 7 5 7 5 6 8 5 5 6 4 6 7 4 6 7 7 7 7 7 7 7 7 8 13 23 22 11 6 7 7 9 7 3 4 3 5 5 4 2 2 4 0 3 4 4 7 10 9 3 1 2 4 9 9 5 10 18 10 3 4 2 4 6 7 12 16 15 18 22 24 23 24 25
21 14 15 31 45 43 26 13 8 9 13 15 12 13 13 9 11 15 10 8 10 6 3 6 4 5 6 3 4 7 7 9 9 5 6 8 4 1 11 24 25 14 9 8 11 15 9 4 7 7 7 10 11 9 5 2 2 3 3 6 11 14 14 8 3 5 11 10 10 7 15 20 14 6 3 3 5 5 6 9 14 17 20 23 23 24 26 27
13 7 7 21 37 37 31 24 12 5 11 15 10 9 13 11 9 13 14 12 14 10 3 3 2 3 4 5 6 10 11 10 7 3 4 6 3 3 3 16 22 13 5 5 12 14 5 3 10 13 14 14 14 14 6 7 5 5 6 10 13 15 17 11 6 11 11 3 5 14 23 23 21 21 20 13 7 9 11 9 11 17 22 24 27 30 31 30
10 7 7 10 18 21 23 24 18 9 7 11 8 5 14 17 8 7 13 14 16 15 7 4 5 6 7 11 12 13 13 9 5 9 13 10 4 3 2 6 12 8 2 3 11 10 2 4 13 17 20 18 17 20 11 7 8 9 9 12 14 14 15 14 16 21 11 4 8 24 24 19 19 26 32 26 15 14 16 14 14 19 25 27 29 31 31 31
14 9 18 21 13 7 13 21 22 17 11 11 10 8 12 16 12 10 12 10 12 16 10 7 12 17 18 17 13 10 10 8 8 14 17 13 6 1 2 2 6 7 3 2 5 5 3 7 13 16 21 21 20 25 18 8 7 7 9 13 16 16 18 20 24 27 16 11 19 23 17 15 19 27 34 27 15 13 17 22 23 24 26 25 25 27 28 29
21 10 18 27 18 10 20 29 25 20 18 14 11 11 14 17 19 16 9 4 5 13 15 12 16 24 25 19 12 7 8 9 12 14 13 11 8 4 3 6 4 3 4 2 2 3 3 7 12 14 18 18 19 25 19 9 8 10 10 13 17 19 20 22 27 28 25 25 25 21 17 18 23 30 28 22 21 20 21 26 29 28 27 24 25 28 28 29
25 16 14 20 19 16 22 25 17 12 15 16 12 12 16 19 21 17 8 9 9 8 14 20 24 21 18 15 13 13 17 18 18 17 11 8 8 6 5 6 2 1 2 2 2 2 4 7 10 10 11 14 19 21 16 11 13 15 14 17 23 23 17 19 26 26 23 23 22 19 18 19 25 28 20 20 29 29 22 24 31 35 34 29 30 33 31 31
34 33 24 13 10 14 17 15 12 9 9 12 13 14 16 19 22 18 12 16 20 13 13 23 27 16 7 11 16 20 27 26 23 25 20 11 8 8 7 6 6 4 3 4 2 2 4 6 6 7 8 12 17 16 11 9 9 10 16 25 30 24 17 20 25 20 16 16 17 17 16 18 23 20 10 14 22 20 16 21 28 35 36 31 31 36 37 36
30 35 34 20 8 12 14 10 11 11 8 11 18 19 18 21 23 18 11 14 24 27 22 21 20 12 5 11 22 31 38 37 34 37 35 21 12 14 16 13 12 9 6 5 3 3 5 5 5 7 8 12 15 10 4 4 3 8 16 23 25 22 21 25 24 19 14 11 12 15 17 21 23 17 13 16 15 11 15 22 27 31 32 31 33 39 42 39
Wind_Direction
2 2 1 360 359 359 358 356 355 356 358 1 3 3 4 9 16 19 22 25 22 15 16 14 353 287 153 143 150 155 152 157 163 153 142 126 111 101 88 70 59 45 36 32 33 32 30 24 346 333 194 161 143 137 103 50 66 106 93 98 194 186 197 189 186 196 169 232 213 186 182 174 194 197 192 203 211 210 205 208 212 213 219 227 230 233 220 202
356 358 358 357 356 354 354 350 348 347 346 347 350 353 354 357 4 12 17 21 22 16 11 11 358 296 241 214 181 172 164 177 191 188 184 166 122 109 97 81 67 50 38 27 25 22 30 33 338 331 167 158 140 139 131 57 63 90 105 98 242 200 199 200 192 197 183 353 200 185 186 191 207 193 190 208 215 200 205 216 218 222 225 228 232 232 218 203
349 352 354 355 355 355 353 350 347 343 341 340 340 343 345 346 350 359 8 14 19 16 9 7 357 323 268 241 223 206 209 246 244 215 194 182 159 135 122 102 75 52 37 22 19 16 20 23 10 155 165 149 134 140 121 52 88 109 102 113 245 216 223 220 206 208 213 267 176 180 191 203 214 192 189 207 214 195 214 222 216 225 230 228 227 225 213 203
341 345 348 351 353 354 353 352 349 345 341 338 336 337 338 339 340 344 353 2 8 10 9 3 355 336 294 254 236 232 248 278 255 215 197 192 182 165 151 128 81 41 26 16 17 19 15 10 27 146 152 133 121 138 110 26 130 180 122 168 234 199 242 230 215 225 223 235 188 177 182 213 218 198 196 196 195 228 232 233 230 238 242 231 222 218 210 205
331 335 340 344 347 351 352 352 350 348 345 340 337 334 334 334 334 334 340 347 355 -0 1 359 356 340 310 279 249 239 254 314 241 204 203 203 191 188 179 162 127 18 7 4 10 20 14 7 29 139 133 120 93 116 98 25 122 145 173 224 233 167 202 272 230 223 216 212 185 170 173 215 207 203 210 198 201 239 244 249 248 251 253 241 230 222 212 207
323 326 331 336 341 344 346 347 347 347 346 343 338 333 332 331 330 328 330 335 341 348 351 354 358 345 319 293 267 241 230 260 210 203 213 212 204 206 200 202 208 324 342 350 357 3 8 12 31 132 110 87 79 110 113 39 155 175 268 253 244 196 208 294 259 224 216 206 192 184 202 214 193 217 226 214 226 243 251 261 260 256 252 245 236 225 217 211
317 321 325 329 334 337 340 342 341 342 343 342 340 334 330 329 328 325 325 328 332 338 342 344 351 348 326 294 277 246 239 249 250 237 231 221 217 216 210 222 229 263 316 338 335 337 357 14 39 97 97 81 158 147 80 173 178 150 222 250 239 217 230 268 267 240 225 221 228 227 228 220 207 231 241 232 241 247 250 256 257 258 248 238 229 223 221 218
312 316 319 324 328 331 333 335 336 337 339 340 340 336 330 328 327 324 322 324 327 331 334 335 340 346 338 299 279 263 257 259 261 251 234 224 225 225 223 229 234 260 297 322 316 320 351 12 40 75 101 99 156 165 71 105 176 111 174 234 223 229 244 260 263 245 234 239 245 246 242 238 234 246 262 256 258 254 249 252 252 253 248 235 227 223 221 218
306 309 314 318 321 325 328 329 332 333 335 338 338 336 331 327 326 325 322 322 324 325 329 331 329 334 336 304 281 277 270 262 259 250 231 224 229 231 234 239 239 253 276 298 303 306 343 14 28 36 159 147 136 148 88 97 251 164 179 221 223 240 256 258 255 244 243 248 241 240 249 252 255 269 271 266 268 263 252 250 249 248 246 237 228 224 222 219
298 303 307 312 316 320 322 324 327 329 332 334 335 336 331 326 325 324 321 321 320 320 323 324 320 321 322 303 268 264 281 275 255 246 233 231 234 235 239 243 244 247 262 281 294 294 318 5 9 30 133 147 131 132 131 112 248 216 224 244 235 244 259 255 251 246 248 255 238 227 249 259 247 238 264 265 274 266 251 245 245 244 242 238 230 226 222 221
292 297 300 305 310 313 317 319 322 324 327 329 331 333 330 325 323 322 321 320 317 316 316 315 312 307 311 295 239 240 285 288 262 251 242 239 237 237 242 243 246 247 254 270 285 287 280 333 355 18 138 155 132 146 178 163 239 271 285 272 266 274 268 249 249 253 243 258 242 224 247 264 172 166 245 253 266 270 255 245 242 240 239 236 230 225 221 221
288 291 295 300 304 308 312 314 316 319 321 325 326 329 331 325 322 322 321 320 315 313 309 306 300 295 304 285 257 264 288 282 270 265 252 244 239 238 243 244 247 250 256 266 276 289 272 283 338 346 201 171 149 114 150 171 239 270 8 281 301 342 305 241 245 246 206 231 232 196 266 255 184 225 243 248 258 259 251 244 241 238 237 232 227 223 221 222
284 287 291 294 298 302 306 309 311 314 316 319 321 324 328 324 322 323 322 320 315 311 307 301 290 289 294 281 274 281 285 278 272 267 258 249 242 240 242 242 247 252 257 265 270 290 277 252 311 330 196 155 153 143 158 101 112 227 93 15 316 354 325 244 142 167 176 205 181 148 280 259 206 232 244 249 250 245 236 236 237 236 235 230 225 222 221 221
280 283 286 288 293 296 299 303 304 307 309 312 314 318 321 320 319 321 321 319 314 310 306 298 289 290 283 274 282 284 279 277 271 264 260 253 244 242 243 243 249 254 259 267 271 289 282 248 285 313 172 126 137 150 0 17 56 242 7 29 4 345 288 282 300 151 156 202 179 152 274 268 248 240 245 248 244 238 233 236 236 235 233 230 225 222 223 223
275 278 281 283 286 290 293 296 298 301 303 305 307 310 313 314 314 317 318 316 313 308 303 297 292 290 281 276 279 279 278 274 266 262 258 252 247 244 244 245 249 255 263 269 274 287 285 247 254 254 148 165 128 119 2 355 15 26 329 305 335 198 270 298 275 186 197 205 176 166 252 272 275 261 252 246 238 233 234 238 238 236 236 232 228 224 225 225
270 273 276 278 281 284 286 289 292 295 297 301 303 305 308 309 310 313 313 312 307 301 299 294 289 284 279 281 275 272 275 269 264 262 255 249 246 242 244 249 253 261 269 275 278 277 270 251 204 118 147 178 123 91 33 3 340 8 64 258 275 226 277 311 287 218 226 175 185 210 244 277 280 263 244 232 230 231 233 239 239 240 240 236 233 228 226 225
269 269 271 273 276 279 281 284 287 290 294 297 299 301 304 306 308 310 309 305 299 296 296 287 280 277 267 268 267 268 275 273 267 260 254 249 244 243 246 250 257 266 272 275 271 253 245 232 153 149 72 71 90 89 39 333 301 322 19 256 250 227 254 295 300 271 220 183 226 231 237 257 265 271 258 239 238 237 236 242 243 245 245 242 237 231 227 226
273 271 270 271 272 275 278 280 283 286 290 294 298 301 304 307 308 308 302 295 292 296 296 271 249 280 264 249 251 270 284 283 275 263 254 249 245 243 244 250 260 266 274 270 250 217 221 180 122 166 23 32 63 102 169 244 218 227 228 241 267 256 241 252 267 278 128 196 245 234 244 256 265 274 268 256 247 242 245 250 250 249 250 247 240 233 230 229
274 274 273 273 273 275 276 278 281 284 287 291 295 299 304 308 306 301 291 282 281 288 286 243 202 197 250 249 266 282 285 279 274 265 255 249 245 244 244 250 256 254 245 227 233 179 174 72 89 241 246 203 196 168 200 214 178 187 199 197 239 255 256 244 241 252 138 244 255 240 245 258 266 273 272 264 248 244 250 254 253 251 251 248 241 236 234 234
276 275 274 274 274 274 275 277 278 281 285 288 293 299 306 312 311 302 279 268 274 274 272 259 242 245 260 271 278 279 277 271 266 260 255 247 241 243 246 245 246 244 213 184 206 121 110 209 232 226 216 209 213 200 194 177 147 143 153 192 232 239 264 264 249 288 21 223 259 252 251 263 265 268 273 270 251 246 249 248 250 251 250 246 240 240 239 239
280 279 278 277 275 274 274 276 277 279 282 287 293 300 307 306 299 298 292 288 283 273 268 265 257 257 263 269 272 272 268 266 260 250 247 242 230 231 236 222 201 219 240 154 143 95 100 212 240 228 209 203 201 179 140 117 125 129 162 216 255 233 255 270 281 319 358 178 264 280 279 269 264 266 273 268 240 246 250 239 245 252 251 248 242 243 244 244
284 284 284 284 281 278 275 274 275 276 279 283 288 294 296 287 281 288 297 294 285 276 270 266 260 259 263 263 263 263 257 254 253 242 236 230 221 217 203 170 156 197 251 116 128 51 94 240 250 219 163 120 83 122 127 123 129 130 145 189 260 242 270 296 329 346 9 191 268 298 289 271 266 263 265 262 243 249 256 246 248 253 252 247 245 246 246 243
285 286 287 287 288 287 280 274 272 273 275 277 281 284 284 282 283 289 291 281 285 284 273 264 261 259 260 258 255 251 238 236 247 242 232 222 213 207 190 158 149 180 206 173 176 168 206 254 258 179 142 116 78 103 119 112 128 161 152 181 250 246 280 287 308 326 293 222 276 290 279 268 263 256 258 264 255 253 258 254 254 255 252 250 250 252 249 244
289 288 288 287 289 290 284 278 273 271 272 272 275 276 277 278 276 290 291 268 279 285 270 259 255 253 253 252 249 240 230 233 243 241 226 213 199 192 196 172 143 195 220 188 177 191 231 240 151 119 128 124 115 133 141 149 219 241 197 208 238 229 222 237 280 320 312 319 324 310 293 279 249 240 254 281 284 261 256 252 254 253 250 251 253 253 251 248
293 291 291 289 291 291 287 282 275 270 268 268 271 269 269 270 271 298 305 286 274 278 268 252 244 247 245 243 239 226 222 236 239 235 220 206 194 178 180 175 168 220 212 162 156 214 251 220 144 124 103 118 138 195 191 176 204 289 230 215 224 225 232 249 321 351 357 332 330 12 323 296 212 199 259 298 332 279 254 236 252 255 248 245 247 249 249 250
296 295 294 292 294 292 287 280 272 268 265 264 261 253 250 248 269 314 322 358 284 257 232 216 216 227 225 224 214 192 201 257 237 226 214 203 200 187 154 167 176 216 179 141 148 221 255 174 139 147 158 154 179 237 224 173 153 287 248 204 200 199 207 223 65 15 296 251 302 56 340 281 276 153 241 265 278 278 266 239 252 259 256 246 248 251 250 251
297 297 298 296 296 296 289 267 254 254 240 242 232 212 218 208 183 354 358 334 273 213 166 179 181 186 200 189 166 156 192 247 200 207 201 195 197 192 193 190 155 209 170 133 189 239 139 102 83 116 138 158 197 243 220 159 141 238 236 131 136 151 172 186 144 166 236 267 321 338 170 274 278 213 231 256 249 277 276 266 260 258 257 253 253 256 253 254
299 300 302 299 297 300 289 258 241 229 207 210 202 196 190 164 159 64 49 276 263 150 142 169 166 183 192 172 171 171 241 173 140 193 188 185 190 187 217 217 172 188 183 144 208 256 124 150 175 148 133 178 202 236 197 160 156 236 187 116 126 141 152 153 133 177 262 25 306 259 158 270 275 239 327 352 225 254 262 260 261 259 258 256 255 257 257 257
298 300 305 302 300 301 287 260 232 215 207 194 176 179 166 150 149 73 92 248 260 120 148 165 163 183 164 156 189 215 250 126 140 175 172 179 190 181 233 216 163 150 191 172 220 259 84 168 194 153 150 207 207 264 187 174 197 173 130 96 80 73 83 91 122 149 28 338 255 236 169 225 274 225 126 64 198 231 248 254 258 259 260 257 253 253 252 254
296 300 303 303 304 298 286 262 223 208 197 187 179 170 159 150 126 112 232 242 249 144 135 158 175 168 144 142 218 233 211 238 129 143 152 171 188 183 135 170 128 118 329 332 266 251 75 88 215 166 170 177 141 85 55 121 138 128 110 71 48 36 52 50 53 94 27 267 253 229 182 192 270 253 162 184 199 207 221 241 256 263 261 254 248 246 247 255
291 296 299 302 303 291 284 261 218 201 189 185 178 162 154 135 99 191 229 234 261 203 125 164 193 148 153 161 209 203 183 242 171 154 158 151 171 167 128 146 114 87 345 316 281 283 16 129 249 212 166 132 105 75 37 58 110 116 98 74 30 337 12 18 356 56 262 254 261 239 180 185 243 252 198 233 250 219 206 215 227 240 248 246 241 242 250 263
284 290 293 295 294 287 281 252 215 195 189 181 171 164 149 124 238 212 216 68 236 215 165 180 211 168 177 174 182 182 163 216 187 166 169 156 166 185 190 191 165 103 304 249 259 326 281 221 212 167 176 162 126 80 27 9 75 112 103 93 44 320 351 346 304 122 230 253 253 146 147 212 245 247 230 243 259 240 216 211 212 213 234 242 244 246 256 265
278 280 281 285 289 289 280 243 209 193 188 175 168 160 117 207 236 188 166 205 218 212 143 125 124 140 149 145 221 196 157 215 190 168 179 149 170 224 244 225 171 169 253 209 232 343 288 288 145 150 221 191 170 163 204 239 175 166 151 131 142 157 118 277 269 277 271 270 271 138 144 251 269 258 221 219 230 227 217 218 220 224 238 246 251 254 260 265
272 271 270 275 278 274 271 241 203 192 186 175 168 140 114 227 236 136 179 216 230 32 69 88 88 97 147 188 230 192 175 232 173 153 185 138 161 233 240 229 200 159 108 152 168 172 242 285 195 175 203 177 183 199 178 139 148 181 154 141 160 153 177 232 233 249 274 290 294 213 183 226 252 264 216 213 229 229 224 226 228 239 248 250 253 255 259 261
265 264 263 265 263 260 265 239 204 191 183 177 168 143 199 224 222 139 198 207 196 69 57 57 98 117 238 257 269 223 209 233 154 137 184 178 191 212 194 203 197 162 129 172 224 166 220 269 231 172 114 162 180 201 131 112 134 195 122 127 181 176 174 216 214 197 232 317 290 230 222 227 217 280 263 231 242 234 230 231 233 243 248 247 249 251 255 257
255 256 255 253 252 254 255 225 204 193 184 177 170 210 221 229 188 180 195 166 174 158 116 37 111 147 243 263 263 242 208 224 159 149 208 211 225 220 193 206 190 180 180 177 194 170 196 272 275 56 357 179 177 172 124 123 168 162 148 178 203 179 140 142 261 31 73 279 272 245 258 271 280 282 236 210 229 232 230 227 226 237 240 239 244 248 250 251
242 246 247 248 248 242 223 208 196 189 186 179 202 220 222 231 190 184 176 150 158 141 138 204 199 175 216 233 224 209 174 212 186 171 209 221 241 206 193 242 194 188 200 193 202 212 184 265 254 156 210 238 119 95 65 22 118 131 195 208 172 120 98 112 242 353 31 244 271 290 272 274 278 276 220 199 230 233 232 227 229 239 234 230 240 243 245 245
234 240 244 248 246 223 200 201 190 184 179 176 230 234 219 207 210 175 152 153 137 139 164 214 211 175 195 215 221 181 170 194 178 176 205 213 246 189 162 209 198 194 206 201 221 246 170 243 261 150 122 0 55 95 90 5 66 129 198 204 115 141 157 114 169 226 248 237 277 282 275 271 262 247 218 232 226 219 228 227 227 235 223 224 235 238 240 241
223 230 243 250 242 211 196 195 183 179 173 181 229 237 216 204 251 217 182 174 147 169 189 221 220 196 188 187 180 169 183 194 174 181 208 200 237 198 161 189 202 202 204 192 196 239 153 211 254 19 0 12 51 183 187 202 21 73 136 39 58 154 172 166 164 181 212 211 260 279 281 274 253 188 192 227 221 205 213 217 216 224 219 221 230 234 235 235
211 216 247 253 235 198 188 185 177 176 183 210 225 230 219 266 250 228 212 202 174 186 204 219 209 216 214 189 182 181 194 205 181 185 225 204 227 239 189 187 183 188 196 189 197 223 98 206 231 325 342 265 191 207 200 190 175 159 171 175 199 163 123 199 235 126 144 187 230 265 275 271 247 151 184 214 207 196 197 201 209 218 222 224 229 233 233 234
206 214 247 236 205 182 177 174 179 187 201 228 235 236 237 246 236 224 220 216 217 215 197 187 197 207 203 191 202 181 175 203 192 194 233 213 223 250 203 191 172 135 130 160 223 213 146 199 216 202 257 238 227 225 215 197 177 174 185 186 191 179 127 183 250 221 153 194 201 191 260 270 250 136 181 189 175 193 194 199 211 213 220 226 230 233 234 236
196 214 233 202 177 175 173 172 196 201 206 220 228 233 220 229 234 220 214 212 220 235 213 207 210 209 200 190 192 173 170 199 202 202 234 222 218 228 202 188 169 145 137 148 205 188 127 131 214 231 234 236 254 296 325 254 163 159 207 193 178 173 156 186 228 228 157 212 208 119 260 268 253 126 152 166 168 196 196 198 209 214 218 224 231 236 238 239
195 206 215 199 185 177 171 177 217 198 227 230 231 243 225 220 239 209 205 204 205 210 219 226 198 203 227 203 170 183 191 207 208 195 207 231 227 228 201 173 160 147 141 142 152 134 110 129 204 247 273 293 340 2 351 346 95 140 246 189 168 199 198 203 219 188 168 213 196 98 251 263 271 110 152 188 181 196 202 202 208 217 223 228 235 238 238 238
206 207 192 187 187 180 174 193 208 201 229 227 228 241 234 236 240 218 200 199 205 195 210 230 199 203 229 185 179 212 198 203 226 203 201 233 239 223 193 173 165 167 182 183 176 167 166 179 171 208 281 286 290 303 343 341 350 212 238 178 189 217 210 219 355 123 237 222 177 160 246 257 269 90 117 188 198 207 221 216 217 224 230 235 238 238 237 238
209 207 184 183 184 183 191 209 202 203 216 217 226 232 230 244 241 229 222 216 219 203 194 236 220 203 216 170 202 235 205 210 238 221 210 237 260 227 192 183 178 186 210 203 174 165 171 187 170 188 231 235 244 247 224 201 195 219 230 181 197 210 202 206 218 217 238 222 161 184 246 255 261 261 245 222 209 236 249 228 229 238 241 242 243 243 243 243
202 193 174 181 188 196 212 222 229 236 211 212 226 226 224 237 247 230 219 220 229 222 213 258 206 179 213 196 222 242 228 225 239 248 245 238 248 357 224 193 190 193 218 199 167 161 159 198 188 205 224 224 240 250 214 131 152 207 209 196 203 210 205 206 225 233 232 175 160 226 240 253 269 276 271 253 232 262 270 252 238 244 249 252 254 254 253 253
205 193 177 177 195 212 225 229 235 245 214 201 200 207 220 225 241 228 207 211 218 210 214 257 211 202 219 206 216 236 230 221 224 240 248 241 234 329 353 200 209 221 252 180 175 163 116 219 205 216 229 228 241 252 234 156 182 210 199 204 214 210 202 204 224 234 223 116 230 240 242 253 268 272 270 264 260 270 275 271 262 258 260 261 262 262 258 255
214 200 193 193 191 196 215 219 220 221 219 203 197 213 222 219 224 222 209 209 205 192 196 233 219 218 223 213 212 231 228 220 224 232 242 245 238 313 354 226 222 222 210 164 188 169 151 226 220 223 234 235 241 251 244 199 199 210 191 209 220 209 201 207 226 235 228 219 241 247 249 256 259 259 263 268 273 268 269 274 274 270 266 263 263 262 256 254
219 213 200 203 203 189 203 213 213 212 216 213 209 219 222 220 221 218 198 169 201 198 198 219 226 222 224 219 212 225 228 224 232 233 235 237 221 191 228 243 233 211 195 171 214 190 170 230 233 234 245 246 244 249 246 221 228 238 220 222 230 223 210 213 230 238 233 235 247 258 263 262 259 258 263 277 283 275 273 279 278 272 266 264 265 263 258 258
226 229 210 204 211 211 211 217 215 210 215 217 219 223 225 229 228 225 197 175 203 207 196 219 234 226 217 215 209 221 228 225 235 240 226 210 210 199 216 226 191 97 214 203 231 217 197 226 237 245 260 255 249 254 252 231 233 245 248 248 246 240 225 224 237 241 240 247 257 265 269 264 258 260 268 281 280 277 277 276 274 272 270 269 269 269 266 262
239 240 235 222 218 212 213 216 208 206 213 210 216 222 226 232 230 228 221 204 212 217 193 212 233 233 195 197 206 222 229 225 231 238 229 211 198 195 203 204 168 149 204 213 192 186 209 226 239 249 258 252 253 260 253 228 229 244 249 250 249 247 240 236 241 240 239 252 264 266 264 258 259 265 268 261 264 268 269 266 266 270 271 270 269 271 270 265
252 250 247 248 234 195 204 216 205 208 215 205 212 217 220 227 227 227 233 218 219 227 218 209 224 228 189 199 214 225 230 229 232 238 238 236 219 203 206 203 184 172 178 185 177 177 191 207 223 228 242 252 253 251 202 157 207 240 241 243 248 252 250 248 251 251 238 233 250 258 257 259 267 274 266 256 255 248 251 257 262 266 269 269 267 267 268 266